Theta_e
311 310 310 311 310 310 310 310 312 311 311 307 303 303 302 303 305 316 321 317 313 310 307 312 315 315 316 320 322 323 326 328 329 328 329 329 329 327 327 327 329 328 328 330 327
310 310 310 310 310 310 310 310 311 311 311 307 303 301 301 304 315 320 316 312 308 305 310 311 313 316 318 319 322 323 324 324 325 327 328 327 329 329 328 327 327 328 328 328 327
309 309 310 310 309 310 310 310 310 311 311 306 301 300 303 308 322 317 309 307 307 311 314 312 312 316 317 320 321 322 323 323 323 324 326 327 327 329 329 329 326 327 328 327 326
309 309 309 309 308 309 310 309 309 311 310 305 300 301 304 315 324 318 311 309 308 316 313 313 313 314 317 319 320 321 322 323 323 323 323 325 326 328 329 329 328 325 327 326 326
308 309 307 307 307 308 308 309 309 309 309 302 300 303 314 320 319 314 311 311 317 315 315 314 314 314 315 316 318 319 320 321 321 321 322 323 325 327 328 328 327 326 324 326 326
304 305 306 307 308 309 309 308 308 309 306 300 300 305 317 316 316 318 316 317 316 314 316 316 316 315 315 316 316 317 317 318 319 320 319 321 322 323 325 326 326 323 324 325 328
305 305 307 307 308 309 309 307 307 305 303 300 302 312 316 315 314 316 316 315 315 314 315 315 315 315 316 315 316 316 316 317 317 318 319 319 319 319 320 321 323 323 323 325 328
306 306 307 307 308 308 307 309 310 304 300 301 305 316 317 311 312 313 315 315 314 314 314 314 314 315 315 316 315 316 316 316 317 317 317 317 318 319 320 320 321 321 322 323 327
306 306 307 307 307 307 310 309 307 304 301 303 315 319 319 311 310 313 314 314 313 313 313 313 313 315 315 315 315 316 315 316 316 317 318 318 318 318 319 320 320 320 321 322 325
306 307 307 307 306 309 312 315 311 309 310 313 316 318 317 315 313 314 313 313 312 313 313 314 314 315 316 315 316 316 317 316 316 317 317 317 317 318 319 319 319 320 320 320 324
307 308 307 307 307 310 313 316 320 323 318 320 318 318 317 315 315 314 313 313 313 314 314 316 315 315 316 316 316 315 316 318 318 316 317 318 318 318 319 319 319 319 319 320 322
306 307 307 306 309 310 311 317 315 315 318 317 315 315 314 315 315 315 313 314 314 314 315 315 315 314 314 315 315 316 316 316 316 316 316 317 317 317 318 318 319 319 319 319 319
308 307 306 307 310 313 316 315 314 315 319 318 315 314 314 315 315 315 315 314 314 315 315 315 315 314 314 314 314 314 315 316 316 317 317 317 317 317 317 317 317 318 318 318 319
308 306 306 309 311 315 317 314 314 315 321 320 315 316 314 315 315 314 314 314 314 315 315 316 315 314 313 313 314 315 315 315 315 316 317 317 317 318 317 317 316 317 317 318 318
308 307 308 310 317 317 315 314 314 316 330 317 316 315 315 315 315 315 314 314 314 315 316 315 315 314 313 313 314 314 315 315 316 317 317 316 316 316 317 317 316 316 317 318 320
301 309 308 314 316 314 314 314 316 326 328 318 315 314 315 314 315 315 315 314 315 315 315 316 316 315 314 314 314 314 314 315 315 315 316 316 316 316 317 316 316 317 317 317 317
299 307 308 313 316 315 315 316 323 325 318 316 315 315 315 315 316 316 316 317 316 317 317 316 316 316 315 314 314 314 315 317 317 317 318 317 316 316 316 316 316 317 315 315 316
300 304 315 314 315 315 316 320 324 319 318 316 315 315 315 316 316 317 316 317 317 317 318 318 318 316 317 315 314 316 317 317 321 321 320 317 316 316 315 315 314 314 314 316 317
306 314 316 318 315 314 319 321 321 320 316 315 315 315 316 316 315 316 316 316 316 316 320 323 317 317 316 316 315 315 318 317 318 319 318 318 319 317 316 315 314 314 315 318 317
311 316 318 315 315 315 320 320 318 317 316 315 315 316 317 316 316 316 316 315 316 315 317 317 317 317 316 316 315 316 316 319 318 318 318 317 317 317 317 316 314 316 317 317 317
314 318 317 314 315 317 319 318 316 314 314 315 315 316 316 316 316 316 315 314 314 315 316 316 319 318 316 318 317 316 316 317 318 324 324 321 318 317 316 316 316 316 316 316 317
314 317 315 312 317 318 316 314 309 310 310 311 312 313 316 315 316 315 314 314 314 315 314 315 319 320 315 315 316 317 320 321 325 322 320 318 318 316 316 316 316 316 316 317 317
314 314 314 310 318 316 313 311 309 309 310 313 314 314 314 315 315 314 313 313 313 313 313 317 318 320 317 316 318 317 316 316 317 320 322 324 321 317 317 317 316 316 317 316 317
312 315 315 313 312 312 312 312 310 309 310 311 312 312 313 313 313 313 313 312 312 312 313 313 317 316 318 316 317 318 317 316 316 322 317 317 316 316 317 317 317 317 317 317 318
312 314 312 313 313 312 311 311 310 310 310 310 310 311 311 312 312 312 311 311 311 312 311 312 314 314 314 312 312 312 312 314 316 317 317 316 315 316 316 317 316 316 316 316 316
308 310 310 311 312 312 311 311 310 309 309 309 308 308 309 311 311 311 310 311 311 311 311 312 316 313 315 313 312 314 313 313 312 313 314 313 314 314 314 315 315 316 318 317 317
304 305 308 312 313 312 311 309 307 307 306 307 307 308 310 310 309 309 309 310 310 311 311 313 316 316 318 313 314 315 312 312 313 313 312 312 313 314 313 315 317 317 319 318 317
Wind_Speed
17 17 16 17 17 17 17 17 16 15 15 13 12 13 15 18 18 13 13 5 5 12 13 9 11 15 19 20 22 19 18 21 27 25 19 15 13 14 9 12 10 10 8 5 7
18 18 17 17 17 17 17 17 16 15 15 13 12 13 15 16 17 17 1 8 8 6 11 16 15 15 15 19 20 20 17 28 25 22 22 21 22 14 11 13 17 18 14 9 6
19 18 18 17 17 17 17 16 16 15 14 12 11 11 13 12 15 9 3 3 6 6 9 9 14 14 19 20 22 22 25 23 22 25 26 23 22 15 17 14 14 21 20 14 13
22 21 20 18 17 17 16 15 15 14 14 12 9 9 11 9 2 9 4 3 5 6 7 9 11 15 18 20 21 25 26 22 23 27 24 23 20 22 20 20 12 7 16 12 13
23 22 22 21 19 17 16 15 14 13 12 9 7 7 7 8 7 11 5 4 4 6 8 8 11 13 18 17 21 22 23 22 22 22 24 22 22 25 26 20 17 12 15 20 12
22 22 22 22 21 19 18 14 13 12 9 5 5 3 9 13 6 8 8 6 7 8 1 7 4 8 12 15 18 17 19 21 23 21 19 24 23 23 26 21 21 11 19 22 22
23 23 22 21 21 20 18 15 13 11 6 4 4 5 12 11 3 8 8 8 5 6 8 4 7 9 5 11 15 17 20 18 20 21 21 18 25 29 24 24 24 19 19 20 20
23 23 22 21 20 18 17 13 10 6 4 4 3 7 8 2 8 9 9 9 6 6 8 8 8 12 13 14 8 14 18 20 21 22 22 20 27 25 26 25 30 16 19 18 20
23 23 22 18 15 12 6 7 5 3 5 4 4 9 10 6 11 13 13 11 10 8 9 9 12 13 14 12 15 17 16 20 21 22 16 21 27 22 16 11 11 17 11 17 15
24 22 20 15 9 4 2 2 3 7 3 6 12 7 10 8 11 7 10 10 8 9 9 11 12 13 14 13 15 16 18 17 17 10 14 20 24 18 16 13 14 14 15 16 13
26 22 15 8 4 1 0 4 6 7 12 12 0 11 4 4 6 12 13 12 11 12 14 16 11 14 17 17 16 19 15 19 16 9 7 12 17 19 18 18 17 17 17 16 14
24 21 11 0 1 1 5 5 7 8 10 10 9 10 9 5 8 14 13 12 13 14 16 12 15 17 18 13 13 16 19 19 17 14 10 16 19 19 20 17 19 18 19 18 16
21 16 7 2 4 3 4 6 8 8 7 9 6 7 11 13 13 11 17 14 16 15 16 16 16 11 12 12 16 18 18 17 17 12 12 14 22 22 21 24 22 22 20 17 16
20 13 4 3 5 1 3 8 10 4 6 13 9 7 8 10 13 15 12 14 14 18 16 15 13 10 12 16 17 17 17 16 16 12 14 15 13 14 5 10 12 15 12 10 13
17 11 3 5 13 8 7 10 6 4 5 6 8 6 5 14 5 14 11 13 17 17 13 16 11 11 14 18 13 14 15 12 11 16 17 20 13 14 20 19 13 12 13 11 7
16 9 5 5 7 5 9 8 5 7 5 6 5 7 13 14 14 10 9 13 15 18 19 23 19 14 15 12 12 13 18 14 16 14 17 21 19 17 14 14 14 13 10 10 7
19 10 7 8 8 9 9 7 6 6 3 3 4 7 12 12 12 14 15 18 17 18 20 21 23 24 21 18 16 14 12 13 16 15 16 18 11 12 4 2 12 18 12 7 9
21 8 6 8 9 9 9 8 8 7 5 4 10 14 15 15 17 15 17 16 20 22 18 18 19 16 16 19 18 13 15 11 12 13 13 4 8 9 9 13 6 3 7 5 7
11 3 9 5 6 8 8 8 13 10 5 9 14 18 16 8 4 14 12 17 19 16 8 15 18 5 10 16 16 20 18 16 19 21 18 14 21 8 12 8 7 11 10 10 6
10 6 4 2 4 8 9 13 13 1 8 11 15 11 15 14 12 13 14 11 9 11 9 14 15 18 4 9 16 20 5 10 11 18 19 17 20 14 19 17 13 10 9 11 4
8 5 5 1 4 7 9 13 10 9 8 7 12 17 18 19 19 20 20 17 2 15 7 12 9 14 6 11 17 15 18 14 13 7 6 13 8 9 10 12 15 6 4 6 11
7 5 4 2 7 3 8 6 5 12 11 13 13 16 16 15 17 17 19 15 3 14 13 7 6 10 17 15 14 14 14 17 5 13 15 15 17 8 4 8 6 6 7 14 11
7 5 4 4 5 7 12 12 12 13 12 6 10 12 14 15 17 16 16 7 9 8 9 7 6 9 13 11 9 15 15 17 18 18 22 16 15 2 11 15 8 14 14 11 10
5 5 2 3 2 6 11 13 6 4 10 12 11 15 15 15 14 18 16 3 6 8 9 1 13 16 14 21 6 5 14 15 11 12 19 21 25 9 9 13 20 15 15 12 12
3 4 4 6 7 11 11 13 14 11 5 9 8 10 11 13 14 15 15 13 9 8 9 9 17 18 19 21 22 22 20 20 19 22 19 19 21 17 21 21 21 17 16 16 16
5 4 4 13 12 10 9 9 12 11 10 13 14 14 14 13 13 16 19 16 16 14 14 13 18 19 22 22 22 22 21 22 23 26 25 26 27 23 23 23 21 16 17 12 12
6 7 5 9 10 10 8 10 10 12 8 10 10 13 15 13 14 15 14 15 14 13 10 11 8 8 15 16 12 16 19 19 21 24 21 22 22 17 21 20 17 7 10 14 16
Wind_Direction
338 336 333 332 330 329 328 326 323 320 316 308 304 304 307 312 310 278 259 275 228 266 248 258 234 232 230 238 234 230 244 246 244 247 256 249 200 203 242 257 264 251 285 6 344
336 333 330 327 326 325 325 324 322 317 311 304 299 300 311 317 302 262 58 274 251 239 212 223 233 223 223 224 229 226 235 243 253 256 252 254 252 187 189 229 245 269 235 214 305
334 332 329 326 323 322 322 320 319 314 308 297 292 299 316 321 269 96 72 215 185 197 261 258 251 232 236 231 224 218 241 254 252 252 264 265 252 242 218 203 238 233 251 332 314
332 329 327 326 322 321 318 316 313 310 304 292 283 300 314 291 312 110 129 144 190 229 255 239 237 229 240 235 227 240 242 252 261 268 267 262 272 263 242 225 213 246 267 246 302
330 327 324 322 320 317 314 313 310 305 299 285 278 308 319 228 254 142 165 164 189 232 253 231 246 238 243 245 247 237 252 251 259 258 269 272 251 255 259 252 230 244 261 247 254
330 325 324 320 318 316 313 309 303 298 287 265 266 299 256 256 92 154 175 187 249 241 247 274 300 315 286 271 255 261 250 263 259 252 253 257 258 260 258 266 255 232 252 253 235
326 324 323 321 318 317 313 306 299 291 271 222 246 275 269 260 209 179 194 221 235 259 258 230 294 264 303 272 255 257 267 261 258 257 244 252 253 248 255 260 252 230 239 246 245
330 326 323 321 318 316 315 317 303 252 227 200 231 260 265 167 217 207 213 233 228 235 261 289 266 277 278 279 260 258 249 255 245 235 241 240 254 247 245 243 241 251 251 242 250
330 327 324 320 317 322 351 24 355 168 170 177 229 226 265 150 213 218 222 235 196 234 244 267 258 258 263 245 254 234 252 246 246 246 233 225 246 252 245 241 253 249 253 263 239
332 329 324 320 322 355 78 51 67 113 155 220 262 250 244 230 183 216 212 238 234 238 237 231 242 244 235 246 251 252 235 229 254 205 207 252 256 253 252 217 232 237 237 246 238
335 330 329 324 330 184 288 235 209 201 207 268 26 262 286 216 215 219 202 212 239 243 251 233 248 247 247 253 257 279 291 284 293 244 255 263 271 261 234 205 225 238 242 241 228
346 340 335 326 147 149 259 311 29 324 294 225 252 260 259 239 232 224 203 232 219 243 245 232 247 254 270 276 280 272 264 259 261 256 249 260 263 261 257 249 244 244 234 231 237
355 354 349 176 147 246 315 16 323 315 264 181 220 238 208 209 233 221 207 232 248 247 249 258 279 316 289 261 248 256 258 261 262 261 238 265 266 258 252 250 247 245 242 239 220
352 356 6 164 246 337 217 339 326 319 270 153 206 192 188 215 232 237 226 242 237 254 267 278 284 284 258 250 259 256 253 241 274 272 260 246 274 248 306 215 236 233 228 225 219
348 351 359 294 316 265 344 323 323 250 278 131 141 96 171 215 52 200 220 231 253 271 241 259 261 238 253 252 251 267 285 295 258 258 269 258 260 260 254 217 192 219 207 197 181
344 325 306 259 255 326 316 307 255 234 250 160 178 218 212 215 245 250 201 229 273 276 272 270 260 255 264 264 265 293 275 251 258 255 252 251 248 261 243 215 183 195 194 198 215
337 295 267 297 317 325 312 248 243 252 87 183 263 216 254 269 264 238 247 248 234 251 249 248 251 244 223 241 243 233 256 268 249 229 244 241 234 242 18 151 195 191 190 215 226
333 272 247 258 300 312 278 240 261 296 308 31 289 279 270 276 269 258 252 257 255 258 285 274 280 257 215 230 253 215 248 240 262 278 291 111 232 245 245 176 210 282 255 257 228
340 221 231 207 288 295 268 245 253 349 8 314 310 272 269 238 244 298 263 265 282 295 218 284 294 24 320 252 261 256 218 258 278 269 279 267 258 190 169 189 210 231 217 209 212
329 252 196 200 263 267 258 264 293 17 302 301 288 294 290 303 299 280 279 297 306 293 313 290 286 280 265 278 264 262 216 245 251 253 250 255 266 265 189 190 196 203 206 225 253
289 263 109 244 244 241 254 281 326 319 323 288 290 295 294 298 297 292 290 293 73 292 292 308 287 265 278 243 262 241 231 222 238 211 264 276 260 344 159 186 180 192 240 251 255
287 280 101 294 257 206 268 10 338 291 286 276 275 277 285 296 296 294 293 304 27 305 291 320 286 280 267 258 247 269 213 258 232 256 259 264 259 175 167 251 194 207 244 251 287
303 292 142 278 287 320 316 299 284 280 283 285 281 287 293 292 292 288 294 306 332 294 323 359 262 278 265 262 223 231 234 236 233 244 257 267 265 8 309 196 203 228 257 282 273
290 301 149 192 246 304 321 300 290 273 281 273 281 292 285 279 277 284 273 243 273 282 104 310 275 276 276 296 157 256 289 286 260 271 263 253 262 197 216 291 260 248 266 278 271
294 15 17 306 323 326 300 295 295 290 238 292 285 266 278 288 295 295 290 288 260 219 225 253 266 274 273 285 287 283 268 249 243 271 267 274 273 259 263 236 261 288 281 274 273
320 344 338 286 273 293 288 284 303 302 301 285 294 295 303 287 294 302 307 298 291 288 276 244 254 266 275 278 272 284 268 264 254 250 250 253 258 264 273 278 277 300 289 275 286
359 271 275 290 271 282 308 318 303 310 293 271 283 299 288 300 315 304 301 292 281 278 282 275 277 287 271 271 281 267 257 256 252 255 256 259 263 263 265 277 263 279 282 298 297